Time,TemperatureF,DewpointF,PressureIn,WindDirection,WindDirectionDegrees,WindSpeedMPH,WindSpeedGustMPH,Humidity,HourlyPrecipIn,Conditions,Clouds,dailyrainin,SoftwareType,DateUTC
2013-03-03 00:02:00,11.0,6.0,-100.00,NNE,30,1.0,4.0,79,-99.99,,,-99.99,,2013-03-03 06:02:00,
2013-03-03 00:11:00,11.0,6.0,-100.00,NE,40,3.0,4.0,79,-99.99,,,-99.99,,2013-03-03 06:11:00,
2013-03-03 00:21:00,10.0,5.0,-100.00,NNE,30,1.0,4.0,79,-99.99,,,-99.99,,2013-03-03 06:21:00,
2013-03-03 00:32:00,10.0,5.0,-100.00,NNE,25,1.0,4.0,80,-99.99,,,-99.99,,2013-03-03 06:32:00,
2013-03-03 00:42:00,10.0,5.0,-100.00,NNE,25,1.0,4.0,80,-99.99,,,-99.99,,2013-03-03 06:42:00,
2013-03-03 00:52:00,10.0,5.0,-100.00,NNE,20,1.0,4.0,80,-99.99,,,-99.99,,2013-03-03 06:52:00,
2013-03-03 01:01:00,10.0,5.0,-100.00,NNE,20,1.0,4.0,80,-99.99,,,-99.99,,2013-03-03 07:01:00,
2013-03-03 01:11:00,10.0,5.0,-100.00,NNE,20,1.0,1.0,80,-99.99,,,-99.99,,2013-03-03 07:11:00,
2013-03-03 01:21:00,11.0,7.0,-100.00,NNE,20,2.0,5.0,81,-99.99,,,-99.99,,2013-03-03 07:21:00,
2013-03-03 01:31:00,11.0,7.0,-100.00,NNE,20,2.0,5.0,81,-99.99,,,-99.99,,2013-03-03 07:31:00,
2013-03-03 01:42:00,12.0,8.0,-100.00,NNE,15,3.0,4.0,82,-99.99,,,-99.99,,2013-03-03 07:42:00,
2013-03-03 01:52:00,11.0,7.0,-100.00,NNE,15,1.0,3.0,82,-99.99,,,-99.99,,2013-03-03 07:52:00,
2013-03-03 02:01:00,11.0,7.0,-100.00,NNE,15,1.0,3.0,82,-99.99,,,-99.99,,2013-03-03 08:01:00,
2013-03-03 02:11:00,10.0,6.0,-100.00,NNE,20,1.0,3.0,82,-99.99,,,-99.99,,2013-03-03 08:11:00,
2013-03-03 02:21:00,11.0,6.0,-100.00,NNE,20,1.0,4.0,82,-99.99,,,-99.99,,2013-03-03 08:21:00,
2013-03-03 02:31:00,11.0,6.0,-100.00,NNE,20,1.0,4.0,82,-99.99,,,-99.99,,2013-03-03 08:31:00,
2013-03-03 02:41:00,11.0,7.0,-100.00,NNE,25,0.0,4.0,83,-99.99,,,-99.99,,2013-03-03 08:41:00,
2013-03-03 02:54:00,11.0,6.0,-100.00,NNE,20,1.0,1.0,83,-99.99,,,-99.99,,2013-03-03 08:54:00,
2013-03-03 03:01:00,11.0,6.0,-100.00,NNE,20,1.0,1.0,83,-99.99,,,-99.99,,2013-03-03 09:01:00,
2013-03-03 03:11:00,10.0,6.0,-100.00,NNE,20,1.0,1.0,83,-99.99,,,-99.99,,2013-03-03 09:11:00,
2013-03-03 03:21:00,11.0,7.0,-100.00,NNE,20,1.0,4.0,84,-99.99,,,-99.99,,2013-03-03 09:21:00,
2013-03-03 03:32:00,11.0,7.0,-100.00,NNE,20,1.0,4.0,84,-99.99,,,-99.99,,2013-03-03 09:32:00,
2013-03-03 03:41:00,11.0,8.0,-100.00,NNE,20,4.0,5.0,85,-99.99,,,-99.99,,2013-03-03 09:41:00,
2013-03-03 03:52:00,12.0,8.0,-100.00,NNE,20,4.0,6.0,85,-99.99,,,-99.99,,2013-03-03 09:52:00,
2013-03-03 04:01:00,12.0,8.0,-100.00,NNE,20,4.0,6.0,85,-99.99,,,-99.99,,2013-03-03 10:01:00,
2013-03-03 04:11:00,13.0,9.0,-100.00,NNE,20,3.0,4.0,86,-99.99,,,-99.99,,2013-03-03 10:11:00,
2013-03-03 04:21:00,12.0,8.0,-100.00,NNE,20,1.0,1.0,85,-99.99,,,-99.99,,2013-03-03 10:21:00,
2013-03-03 04:32:00,12.0,8.0,-100.00,NNE,20,1.0,1.0,85,-99.99,,,-99.99,,2013-03-03 10:32:00,
2013-03-03 04:42:00,11.0,8.0,-100.00,NNE,20,0.0,1.0,86,-99.99,,,-99.99,,2013-03-03 10:42:00,
2013-03-03 04:52:00,10.0,7.0,-100.00,NNE,20,2.0,4.0,86,-99.99,,,-99.99,,2013-03-03 10:52:00,
2013-03-03 05:01:00,10.0,7.0,-100.00,NNE,20,2.0,4.0,86,-99.99,,,-99.99,,2013-03-03 11:01:00,
2013-03-03 05:11:00,8.0,5.0,-100.00,NNE,20,0.0,1.0,86,-99.99,,,-99.99,,2013-03-03 11:11:00,
2013-03-03 05:21:00,8.0,5.0,-100.00,NNE,25,1.0,3.0,86,-99.99,,,-99.99,,2013-03-03 11:21:00,
2013-03-03 05:32:00,8.0,5.0,-100.00,NNE,25,1.0,3.0,86,-99.99,,,-99.99,,2013-03-03 11:32:00,
2013-03-03 05:42:00,8.0,5.0,-100.00,NNE,20,0.0,1.0,87,-99.99,,,-99.99,,2013-03-03 11:42:00,
2013-03-03 05:52:00,8.0,5.0,-100.00,NNE,20,0.0,0.0,87,-99.99,,,-99.99,,2013-03-03 11:52:00,
2013-03-03 06:01:00,8.0,5.0,-100.00,NNE,20,0.0,0.0,87,-99.99,,,-99.99,,2013-03-03 12:01:00,
2013-03-03 06:11:00,9.0,6.0,-100.00,NNE,20,5.0,6.0,88,-99.99,,,-99.99,,2013-03-03 12:11:00,
2013-03-03 06:21:00,11.0,8.0,-100.00,NNE,25,5.0,6.0,88,-99.99,,,-99.99,,2013-03-03 12:21:00,
2013-03-03 06:32:00,11.0,8.0,-100.00,NNE,25,5.0,6.0,88,-99.99,,,-99.99,,2013-03-03 12:32:00,
2013-03-03 06:43:00,10.0,7.0,-100.00,NNE,25,4.0,4.0,88,-99.99,,,-99.99,,2013-03-03 12:43:00,
2013-03-03 06:53:00,11.0,8.0,-100.00,NNE,15,4.0,5.0,88,-99.99,,,-99.99,,2013-03-03 12:53:00,
2013-03-03 07:01:00,11.0,8.0,-100.00,NNE,15,4.0,5.0,88,-99.99,,,-99.99,,2013-03-03 13:01:00,
2013-03-03 07:11:00,11.0,8.0,-100.00,NNE,20,4.0,4.0,88,-99.99,,,-99.99,,2013-03-03 13:11:00,
2013-03-03 07:22:00,11.0,8.0,-100.00,NNE,20,2.0,5.0,88,-99.99,,,-99.99,,2013-03-03 13:22:00,
2013-03-03 07:32:00,11.0,8.0,-100.00,NNE,20,2.0,5.0,88,-99.99,,,-99.99,,2013-03-03 13:32:00,
2013-03-03 07:42:00,10.0,8.0,-100.00,NNE,25,1.0,4.0,88,-99.99,,,-99.99,,2013-03-03 13:42:00,
2013-03-03 07:52:00,12.0,9.0,-100.00,NNE,20,1.0,2.0,88,-99.99,,,-99.99,,2013-03-03 13:52:00,
2013-03-03 08:02:00,12.0,9.0,-100.00,NNE,20,1.0,2.0,88,-99.99,,,-99.99,,2013-03-03 14:02:00,
2013-03-03 08:11:00,13.0,10.0,-100.00,NNE,25,2.0,4.0,88,-99.99,,,-99.99,,2013-03-03 14:11:00,
2013-03-03 08:21:00,14.0,11.0,-100.00,NNE,25,4.0,6.0,87,-99.99,,,-99.99,,2013-03-03 14:21:00,
2013-03-03 08:32:00,14.0,11.0,-100.00,NNE,25,4.0,6.0,87,-99.99,,,-99.99,,2013-03-03 14:32:00,
2013-03-03 08:42:00,15.0,11.0,-100.00,NNE,20,1.0,4.0,86,-99.99,,,-99.99,,2013-03-03 14:42:00,
2013-03-03 08:52:00,16.0,12.0,-100.00,NNE,25,2.0,4.0,84,-99.99,,,-99.99,,2013-03-03 14:52:00,
2013-03-03 09:01:00,16.0,12.0,-100.00,NNE,25,2.0,4.0,84,-99.99,,,-99.99,,2013-03-03 15:01:00,
2013-03-03 09:11:00,18.0,13.0,-100.00,NNE,25,4.0,5.0,80,-99.99,,,-99.99,,2013-03-03 15:11:00,
2013-03-03 09:22:00,19.0,13.0,-100.00,NNE,20,4.0,4.0,77,-99.99,,,-99.99,,2013-03-03 15:22:00,
2013-03-03 09:32:00,19.0,13.0,-100.00,NNE,20,4.0,4.0,77,-99.99,,,-99.99,,2013-03-03 15:32:00,
2013-03-03 09:42:00,21.0,14.0,-100.00,NNE,20,4.0,4.0,74,-99.99,,,-99.99,,2013-03-03 15:42:00,
2013-03-03 09:52:00,22.0,14.0,-100.00,NNE,25,2.0,4.0,71,-99.99,,,-99.99,,2013-03-03 15:52:00,
2013-03-03 10:01:00,22.0,14.0,-100.00,NNE,25,2.0,4.0,71,-99.99,,,-99.99,,2013-03-03 16:01:00,
2013-03-03 10:12:00,24.0,14.0,-100.00,NNE,15,3.0,4.0,65,-99.99,,,-99.99,,2013-03-03 16:12:00,
2013-03-03 10:22:00,25.0,13.0,-100.00,NNE,25,4.0,5.0,59,-99.99,,,-99.99,,2013-03-03 16:22:00,
2013-03-03 10:32:00,25.0,13.0,-100.00,NNE,25,4.0,5.0,59,-99.99,,,-99.99,,2013-03-03 16:32:00,
2013-03-03 10:42:00,26.0,11.0,-100.00,NNE,30,4.0,5.0,52,-99.99,,,-99.99,,2013-03-03 16:42:00,
2013-03-03 10:52:00,27.0,11.0,-100.00,NE,35,4.0,5.0,50,-99.99,,,-99.99,,2013-03-03 16:52:00,
2013-03-03 11:01:00,27.0,11.0,-100.00,NE,35,4.0,5.0,50,-99.99,,,-99.99,,2013-03-03 17:01:00,
2013-03-03 11:11:00,28.0,11.0,-100.00,NNE,25,4.0,6.0,48,-99.99,,,-99.99,,2013-03-03 17:11:00,
2013-03-03 11:22:00,29.0,11.0,-100.00,NNE,20,4.0,6.0,46,-99.99,,,-99.99,,2013-03-03 17:22:00,
2013-03-03 11:32:00,29.0,11.0,-100.00,NNE,20,4.0,6.0,46,-99.99,,,-99.99,,2013-03-03 17:32:00,
2013-03-03 11:42:00,30.0,10.0,-100.00,NNE,30,4.0,6.0,43,-99.99,,,-99.99,,2013-03-03 17:42:00,
2013-03-03 11:52:00,29.0,8.0,-100.00,NNE,25,4.0,7.0,40,-99.99,,,-99.99,,2013-03-03 17:52:00,
2013-03-03 12:02:00,29.0,8.0,-100.00,NNE,25,4.0,7.0,40,-99.99,,,-99.99,,2013-03-03 18:02:00,
2013-03-03 12:11:00,31.0,9.0,-100.00,NE,40,4.0,7.0,40,-99.99,,,-99.99,,2013-03-03 18:11:00,
2013-03-03 12:21:00,31.0,10.0,-100.00,NNE,30,4.0,7.0,40,-99.99,,,-99.99,,2013-03-03 18:21:00,
2013-03-03 12:32:00,31.0,10.0,-100.00,NNE,30,4.0,7.0,40,-99.99,,,-99.99,,2013-03-03 18:32:00,
2013-03-03 12:42:00,31.0,9.0,-100.00,NNE,25,4.0,7.0,40,-99.99,,,-99.99,,2013-03-03 18:42:00,
2013-03-03 12:52:00,33.0,9.0,-100.00,NNE,30,4.0,6.0,37,-99.99,,,-99.99,,2013-03-03 18:52:00,
2013-03-03 13:02:00,33.0,9.0,-100.00,NNE,30,4.0,7.0,36,-99.99,,,-99.99,,2013-03-03 19:02:00,
2013-03-03 13:11:00,33.0,9.0,-100.00,NNE,30,4.0,7.0,36,-99.99,,,-99.99,,2013-03-03 19:11:00,
2013-03-03 13:22:00,33.0,8.0,-100.00,NNE,25,4.0,7.0,34,-99.99,,,-99.99,,2013-03-03 19:22:00,
2013-03-03 13:32:00,33.0,8.0,-100.00,NNE,25,4.0,7.0,34,-99.99,,,-99.99,,2013-03-03 19:32:00,
2013-03-03 13:42:00,31.0,6.0,-100.00,NNE,20,5.0,7.0,33,-99.99,,,-99.99,,2013-03-03 19:42:00,
2013-03-03 13:52:00,31.0,6.0,-100.00,NNE,20,5.0,8.0,34,-99.99,,,-99.99,,2013-03-03 19:52:00,
2013-03-03 14:01:00,31.0,6.0,-100.00,NNE,20,5.0,8.0,34,-99.99,,,-99.99,,2013-03-03 20:01:00,
2013-03-03 14:11:00,31.0,6.0,-100.00,NNE,20,6.0,9.0,35,-99.99,,,-99.99,,2013-03-03 20:11:00,
2013-03-03 14:21:00,31.0,7.0,-100.00,NNE,25,6.0,8.0,35,-99.99,,,-99.99,,2013-03-03 20:21:00,
2013-03-03 14:32:00,31.0,7.0,-100.00,NNE,25,6.0,8.0,35,-99.99,,,-99.99,,2013-03-03 20:32:00,
2013-03-03 14:42:00,32.0,8.0,-100.00,NNE,20,6.0,9.0,36,-99.99,,,-99.99,,2013-03-03 20:42:00,
2013-03-03 14:53:00,31.0,8.0,-100.00,NNE,30,5.0,8.0,37,-99.99,,,-99.99,,2013-03-03 20:53:00,
2013-03-03 15:02:00,31.0,8.0,-100.00,NNE,30,5.0,8.0,37,-99.99,,,-99.99,,2013-03-03 21:02:00,
2013-03-03 15:11:00,32.0,8.0,-100.00,NNE,25,4.0,8.0,37,-99.99,,,-99.99,,2013-03-03 21:11:00,
2013-03-03 15:22:00,31.0,9.0,-100.00,NNE,20,4.0,7.0,38,-99.99,,,-99.99,,2013-03-03 21:22:00,
2013-03-03 15:32:00,31.0,9.0,-100.00,NNE,20,4.0,7.0,38,-99.99,,,-99.99,,2013-03-03 21:32:00,
2013-03-03 15:42:00,32.0,9.0,-100.00,NNE,20,4.0,7.0,38,-99.99,,,-99.99,,2013-03-03 21:42:00,
2013-03-03 15:52:00,32.0,9.0,-100.00,NNE,20,4.0,6.0,37,-99.99,,,-99.99,,2013-03-03 21:52:00,
2013-03-03 16:01:00,32.0,9.0,-100.00,NNE,20,4.0,6.0,37,-99.99,,,-99.99,,2013-03-03 22:01:00,
2013-03-03 16:11:00,33.0,9.0,-100.00,NNE,30,1.0,5.0,36,-99.99,,,-99.99,,2013-03-03 22:11:00,
2013-03-03 16:22:00,34.0,8.0,-100.00,NE,45,1.0,5.0,34,-99.99,,,-99.99,,2013-03-03 22:22:00,
2013-03-03 16:32:00,34.0,7.0,-100.00,NE,40,2.0,4.0,32,-99.99,,,-99.99,,2013-03-03 22:32:00,
2013-03-03 16:42:00,34.0,7.0,-100.00,NE,40,2.0,4.0,32,-99.99,,,-99.99,,2013-03-03 22:42:00,
2013-03-03 16:52:00,32.0,7.0,-100.00,North,0,3.0,5.0,34,-99.99,,,-99.99,,2013-03-03 22:52:00,
2013-03-03 17:01:00,32.0,7.0,-100.00,North,0,3.0,5.0,34,-99.99,,,-99.99,,2013-03-03 23:01:00,
2013-03-03 17:11:00,32.0,7.0,-100.00,NE,35,4.0,6.0,35,-99.99,,,-99.99,,2013-03-03 23:11:00,
2013-03-03 17:21:00,31.0,7.0,-100.00,NE,35,4.0,6.0,36,-99.99,,,-99.99,,2013-03-03 23:21:00,
2013-03-03 17:32:00,31.0,7.0,-100.00,NE,35,4.0,6.0,36,-99.99,,,-99.99,,2013-03-03 23:32:00,
2013-03-03 17:42:00,30.0,7.0,-100.00,NE,40,2.0,4.0,37,-99.99,,,-99.99,,2013-03-03 23:42:00,
2013-03-03 17:52:00,29.0,7.0,-100.00,NE,40,1.0,4.0,38,-99.99,,,-99.99,,2013-03-03 23:52:00,
2013-03-03 18:01:00,29.0,7.0,-100.00,NE,40,1.0,4.0,38,-99.99,,,-99.99,,2013-03-04 00:01:00,
2013-03-03 18:11:00,27.0,6.0,-100.00,North,0,1.0,3.0,40,-99.99,,,-99.99,,2013-03-04 00:11:00,
2013-03-03 18:21:00,23.0,5.0,-100.00,North,0,0.0,1.0,45,-99.99,,,-99.99,,2013-03-04 00:21:00,
2013-03-03 18:32:00,20.0,4.0,-100.00,North,0,3.0,4.0,49,-99.99,,,-99.99,,2013-03-04 00:32:00,
2013-03-03 18:42:00,20.0,4.0,-100.00,North,0,3.0,4.0,49,-99.99,,,-99.99,,2013-03-04 00:42:00,
2013-03-03 18:52:00,18.0,4.0,-100.00,North,0,0.0,1.0,54,-99.99,,,-99.99,,2013-03-04 00:52:00,
2013-03-03 19:01:00,18.0,4.0,-100.00,North,0,0.0,1.0,54,-99.99,,,-99.99,,2013-03-04 01:01:00,
2013-03-03 19:11:00,17.0,5.0,-100.00,North,0,4.0,4.0,58,-99.99,,,-99.99,,2013-03-04 01:11:00,
2013-03-03 19:21:00,16.0,5.0,-100.00,North,5,4.0,4.0,61,-99.99,,,-99.99,,2013-03-04 01:21:00,
2013-03-03 19:32:00,15.0,5.0,-100.00,North,0,1.0,3.0,63,-99.99,,,-99.99,,2013-03-04 01:32:00,
2013-03-03 19:42:00,15.0,5.0,-100.00,North,0,1.0,3.0,63,-99.99,,,-99.99,,2013-03-04 01:42:00,
2013-03-03 19:52:00,16.0,6.0,-100.00,North,0,1.0,3.0,65,-99.99,,,-99.99,,2013-03-04 01:52:00,
2013-03-03 20:01:00,16.0,6.0,-100.00,North,0,1.0,3.0,65,-99.99,,,-99.99,,2013-03-04 02:01:00,
2013-03-03 20:11:00,16.0,6.0,-100.00,North,0,1.0,2.0,66,-99.99,,,-99.99,,2013-03-04 02:11:00,
2013-03-03 20:22:00,15.0,6.0,-100.00,North,0,0.0,1.0,66,-99.99,,,-99.99,,2013-03-04 02:22:00,
2013-03-03 20:32:00,15.0,6.0,-100.00,North,0,0.0,1.0,66,-99.99,,,-99.99,,2013-03-04 02:32:00,
2013-03-03 20:42:00,15.0,6.0,-100.00,North,0,1.0,1.0,66,-99.99,,,-99.99,,2013-03-04 02:42:00,
2013-03-03 20:52:00,14.0,4.0,-100.00,North,5,5.0,6.0,66,-99.99,,,-99.99,,2013-03-04 02:52:00,
2013-03-03 21:02:00,14.0,4.0,-100.00,North,5,5.0,6.0,66,-99.99,,,-99.99,,2013-03-04 03:02:00,
2013-03-03 21:11:00,13.0,4.0,-100.00,North,5,1.0,5.0,67,-99.99,,,-99.99,,2013-03-04 03:11:00,
2013-03-03 21:22:00,15.0,6.0,-100.00,North,5,4.0,4.0,67,-99.99,,,-99.99,,2013-03-04 03:22:00,
2013-03-03 21:32:00,15.0,6.0,-100.00,North,5,4.0,4.0,67,-99.99,,,-99.99,,2013-03-04 03:32:00,
2013-03-03 21:42:00,15.0,6.0,-100.00,North,5,4.0,6.0,67,-99.99,,,-99.99,,2013-03-04 03:42:00,
2013-03-03 21:52:00,15.0,6.0,-100.00,North,5,4.0,5.0,67,-99.99,,,-99.99,,2013-03-04 03:52:00,
2013-03-03 22:01:00,15.0,6.0,-100.00,North,5,4.0,5.0,67,-99.99,,,-99.99,,2013-03-04 04:01:00,
2013-03-03 22:11:00,15.0,6.0,-100.00,North,5,4.0,5.0,67,-99.99,,,-99.99,,2013-03-04 04:11:00,
2013-03-03 22:22:00,15.0,6.0,-100.00,North,5,1.0,4.0,67,-99.99,,,-99.99,,2013-03-04 04:22:00,
2013-03-03 22:32:00,15.0,6.0,-100.00,North,5,1.0,4.0,67,-99.99,,,-99.99,,2013-03-04 04:32:00,
2013-03-03 22:42:00,16.0,7.0,-100.00,North,5,0.0,1.0,66,-99.99,,,-99.99,,2013-03-04 04:42:00,
2013-03-03 22:52:00,15.0,6.0,-100.00,North,5,3.0,3.0,66,-99.99,,,-99.99,,2013-03-04 04:52:00,
2013-03-03 23:01:00,15.0,6.0,-100.00,North,5,3.0,3.0,66,-99.99,,,-99.99,,2013-03-04 05:01:00,
2013-03-03 23:11:00,15.0,6.0,-100.00,North,5,4.0,4.0,66,-99.99,,,-99.99,,2013-03-04 05:11:00,
2013-03-03 23:22:00,15.0,6.0,-100.00,North,5,4.0,5.0,66,-99.99,,,-99.99,,2013-03-04 05:22:00,
2013-03-03 23:32:00,15.0,6.0,-100.00,North,5,4.0,5.0,66,-99.99,,,-99.99,,2013-03-04 05:32:00,
2013-03-03 23:42:00,15.0,6.0,-100.00,North,5,6.0,7.0,67,-99.99,,,-99.99,,2013-03-04 05:42:00,
2013-03-03 23:52:00,16.0,7.0,-100.00,North,5,6.0,9.0,67,-99.99,,,-99.99,,2013-03-04 05:52:00,